Location: ????????
(55.6189°N, 38.3031°E)
Time: 20:44:47
(UTC+00:00)

SL-16 R/B - Pass Details

Date: 28 February 2020
Orbit: 843 x 847 km, 71.0° (Epoch: 09 April)

Event Time Altitude Azimuth Distance (km) Brightness Sun altitude
Exits shadow 22:35:14 15° 61° (ENE) 2,167 4.7 -41.0°
Drops below altitude 10° 22:36:21 10° 52° (NE) 2,475 5.1 -41.0°
Sets 22:39:14 0° 39° (NE) 3,415 6.1 -40.8°
